Location: Newark
(55.5030°N, 22.7200°E)
Time: 05:53:30
(UTC+00:00)

Transit 2A - All Passes

Search period start: 06 June 2020 00:00
Search period end: 16 June 2020 00:00
Orbit: 593 x 966 km, 66.7° (Epoch: 05 June)

Date Brightness Start Highest point End Pass type
(mag) Time Alt. Az. Time Alt. Az. Time Alt. Az.
06 Jun - 10:21:12 10° S 10:26:05 44° ESE 10:31:31 10° NE daylight
06 Jun - 12:04:02 10° WSW 12:09:17 55° NW 12:15:08 10° NE daylight
06 Jun - 13:48:47 10° WNW 13:53:42 30° N 13:59:01 10° NE daylight
06 Jun - 15:33:22 10° NW 15:38:34 31° NNE 15:44:05 10° ENE daylight
06 Jun - 17:16:57 10° NW 17:22:56 59° NE 17:29:15 10° ESE daylight
06 Jun - 19:00:20 10° NW 19:06:14 48° WSW 19:12:19 10° SSE daylight
06 Jun - 20:46:02 10° W 20:48:13 12° W 20:50:25 10° WSW visible
07 Jun - 09:47:29 10° S 09:52:07 34° ESE 09:57:12 10° NE daylight
07 Jun - 11:29:43 10° SW 11:35:01 67° NW 11:40:56 10° NE daylight
07 Jun - 13:14:16 10° W 13:19:15 32° NNW 13:24:40 10° NE daylight
07 Jun - 14:59:01 10° NW 15:04:07 29° N 15:09:30 10° ENE daylight
07 Jun - 16:42:45 10° NW 16:48:38 50° NNE 16:54:49 10° ESE daylight
07 Jun - 18:26:06 10° NW 18:32:10 61° SW 18:38:26 10° SSE daylight
07 Jun - 20:10:44 10° WNW 20:14:25 16° WSW 20:18:08 10° SW visible
08 Jun - 09:13:58 10° SSE 09:18:12 26° ESE 09:22:47 10° ENE daylight
08 Jun - 10:55:30 10° SW 11:00:48 83° NW 11:06:44 10° NE daylight
08 Jun - 12:39:46 10° W 12:44:50 35° NNW 12:50:21 10° NE daylight
08 Jun - 14:24:38 10° NW 14:29:39 28° N 14:34:58 10° ENE daylight
08 Jun - 16:08:34 10° NW 16:14:18 43° NNE 16:20:21 10° E daylight
08 Jun - 17:51:54 10° NW 17:58:03 76° SW 18:04:26 10° SSE daylight
08 Jun - 19:35:59 10° WNW 19:40:34 22° WSW 19:45:11 10° SSW daylight
09 Jun - 08:40:42 10° SSE 08:44:19 19° ESE 08:48:12 10° ENE daylight
09 Jun - 10:21:23 10° SW 10:26:38 79° SE 10:32:32 10° NE daylight
09 Jun - 12:05:17 10° W 12:10:26 39° NNW 12:16:05 10° NE daylight
09 Jun - 13:50:13 10° WNW 13:55:10 28° N 14:00:27 10° ENE daylight
09 Jun - 15:34:20 10° NW 15:39:56 38° NNE 15:45:49 10° E daylight
09 Jun - 17:17:42 10° NW 17:23:54 88° NE 17:30:19 10° SE daylight
09 Jun - 19:01:29 10° WNW 19:06:39 28° WSW 19:11:55 10° SSW daylight
10 Jun - 08:07:51 10° SE 08:10:32 14° ESE 08:13:20 10° ENE daylight
10 Jun - 09:47:22 10° SSW 09:52:32 62° SE 09:58:18 10° NE daylight
10 Jun - 11:30:50 10° WSW 11:36:04 45° NNW 11:41:51 10° NE daylight
10 Jun - 13:15:44 10° WNW 13:20:41 29° N 13:25:59 10° NE daylight
10 Jun - 15:00:06 10° NW 15:05:31 34° NNE 15:11:16 10° E daylight
10 Jun - 16:43:32 10° NW 16:49:41 74° NE 16:56:05 10° SE daylight
10 Jun - 18:27:06 10° NW 18:32:42 36° WSW 18:38:24 10° S daylight
11 Jun - 09:13:29 10° SSW 09:18:29 47° ESE 09:24:03 10° NE daylight
11 Jun - 10:56:26 10° WSW 11:01:45 54° NW 11:07:38 10° NE daylight
11 Jun - 12:41:14 10° WNW 12:46:13 30° N 12:51:34 10° NE daylight
11 Jun - 14:25:48 10° NW 14:31:05 32° NNE 14:36:41 10° ENE daylight
11 Jun - 16:09:21 10° NW 16:15:26 62° NE 16:21:46 10° ESE daylight
11 Jun - 17:52:48 10° NW 17:58:41 46° WSW 18:04:42 10° S daylight
11 Jun - 19:38:54 10° W 19:40:36 11° W 19:42:18 10° WSW daylight
12 Jun - 08:39:44 10° S 08:44:30 36° ESE 08:49:44 10° NE daylight
12 Jun - 10:22:07 10° WSW 10:27:28 65° NW 10:33:26 10° NE daylight
12 Jun - 12:06:43 10° WNW 12:11:46 32° NNW 12:17:12 10° NE daylight
12 Jun - 13:51:28 10° NW 13:56:38 30° N 14:02:06 10° ENE daylight
12 Jun - 15:35:11 10° NW 15:41:09 52° NE 15:47:22 10° ESE daylight
12 Jun - 17:18:33 10° NW 17:24:38 58° SW 17:30:52 10° SSE daylight
12 Jun - 19:03:20 10° WNW 19:06:49 15° WSW 19:10:19 10° SW daylight
13 Jun - 08:06:11 10° SSE 08:10:34 27° ESE 08:15:21 10° NE daylight
13 Jun - 09:47:52 10° SW 09:53:14 80° NW 09:59:14 10° NE daylight
13 Jun - 11:32:12 10° W 11:37:20 35° NNW 11:42:53 10° NE daylight
13 Jun - 13:17:06 10° NW 13:22:10 29° N 13:27:33 10° ENE daylight
13 Jun - 15:01:00 10° NW 15:06:49 45° NNE 15:12:55 10° ESE daylight
13 Jun - 16:44:20 10° NW 16:50:31 73° SW 16:56:54 10° SSE daylight
13 Jun - 18:28:32 10° WNW 18:32:58 21° WSW 18:37:27 10° SSW daylight
14 Jun - 07:32:51 10° SSE 07:36:42 21° ESE 07:40:49 10° ENE daylight
14 Jun - 09:13:44 10° SW 09:19:04 83° SE 09:25:02 10° NE daylight
14 Jun - 10:57:43 10° W 11:02:55 39° NNW 11:08:36 10° NE daylight
14 Jun - 12:42:40 10° WNW 12:47:41 28° N 12:53:02 10° ENE daylight
14 Jun - 14:26:46 10° NW 14:32:27 39° NNE 14:38:23 10° E daylight
14 Jun - 16:10:09 10° NW 16:16:22 88° SW 16:22:48 10° SE daylight
14 Jun - 17:53:59 10° WNW 17:59:04 27° WSW 18:04:13 10° SSW daylight
15 Jun - 06:59:51 10° SE 07:02:52 15° ESE 07:06:03 10° ENE daylight
15 Jun - 08:39:41 10° SSW 08:44:57 66° SE 08:50:49 10° NE daylight
15 Jun - 10:23:16 10° WSW 10:28:33 44° NNW 10:34:22 10° NE daylight
15 Jun - 12:08:12 10° WNW 12:13:12 29° N 12:18:33 10° NE daylight
15 Jun - 13:52:32 10° NW 13:58:02 35° NNE 14:03:50 10° E daylight
15 Jun - 15:35:58 10° NW 15:42:11 77° NE 15:48:35 10° SE daylight
15 Jun - 17:19:35 10° NW 17:25:07 34° WSW 17:30:46 10° S daylight
